Voltar ao catálogo

ESA/GOES

AtivoMeteoHEO
NORAD 9931·PAYLOAD·🇪🇺 EU

Lançado Apr 20, 1977 de Cape Canaveral Space Force Station

Loading…

Próximas Passagens (próximas 24 horas)

TLE

AtualizadoSource: Space-Track

Época: Sep 12, 2026, 17:52 UTC

1  9931U 77029A   26255.74501321 -.00000416  00000-0  00000+0 0  9991
2  9931  27.6416  23.2766 6605546 341.0815   2.8502  1.96176665353577

Acompanhe ESA/GOES em tempo real com AllMySat

Download on the App Store